This is the latest recevied weather packets stored in our database for station/object DR0T. If no packets are shown the sender has not sent any weather packets the latest 1 day(s).
| Time | Temp. | Humidity | Pressure | Rain* | Wind** | Luminosity | Snow |
|---|---|---|---|---|---|---|---|
| 1777989454 | 14.44° C | 80% | 1009.1 hPa | 0 mm | 3.13 m/s, 250° | - | - |
| 1777989159 | 14.44° C | 81% | 1009 hPa | 0 mm | 2.68 m/s, 245° | - | - |
| 1777988852 | 15° C | 79% | 1009.1 hPa | 0 mm | 2.68 m/s, 241° | - | - |
| 1777988551 | 15° C | 78% | 1008.9 hPa | 0 mm | 2.24 m/s, 247° | - | - |
| 1777988249 | 15° C | 77% | 1008.8 hPa | 0 mm | 2.68 m/s, 249° | - | - |
| 1777987948 | 15° C | 76% | 1008.9 hPa | 0 mm | 2.24 m/s, 243° | - | - |
| 1777987652 | 15° C | 74% | 1008.9 hPa | 0 mm | 2.24 m/s, 249° | - | - |
| 1777987345 | 15.56° C | 73% | 1009 hPa | 0 mm | 2.24 m/s, 243° | - | - |
| 1777987044 | 15.56° C | 72% | 1009.1 hPa | 0 mm | 2.24 m/s, 244° | - | - |
| 1777986743 | 15.56° C | 71% | 1009.1 hPa | 0 mm | 2.24 m/s, 243° | - | - |
| 1777986441 | 15.56° C | 70% | 1009.1 hPa | 0 mm | 1.79 m/s, 246° | - | - |
| 1777986140 | 15.56° C | 69% | 1009.1 hPa | 0 mm | 2.24 m/s, 249° | - | - |
| 1777985841 | 15.56° C | 71% | 1009.1 hPa | 0 mm | 2.24 m/s, 238° | - | - |
| 1777985540 | 16.11° C | 71% | 1009.1 hPa | 0 mm | 2.24 m/s, 222° | - | - |
| 1777985236 | 16.11° C | 71% | 1009.1 hPa | 0 mm | 1.34 m/s, 212° | - | - |
| 1777984955 | 16.11° C | 71% | 1009 hPa | 0 mm | 1.34 m/s, 208° | - | - |
| 1777984654 | 16.11° C | 71% | 1009 hPa | 0 mm | 0.89 m/s, 207° | - | - |
| 1777984352 | 16.11° C | 71% | 1009 hPa | 0 mm | 1.79 m/s, 219° | - | - |
| 1777984051 | 16.11° C | 71% | 1009 hPa | 0 mm | 1.79 m/s, 218° | - | - |
| 1777983752 | 16.11° C | 71% | 1009.1 hPa | 0 mm | 1.34 m/s, 212° | - | - |
| 1777983451 | 16.11° C | 71% | 1009 hPa | 0 mm | 1.79 m/s, 216° | - | - |
| 1777983147 | 16.11° C | 70% | 1009 hPa | 0 mm | 1.79 m/s, 213° | - | - |
| 1777982850 | 16.11° C | 70% | 1009 hPa | 0 mm | 1.34 m/s, 212° | - | - |
| 1777982545 | 16.11° C | 71% | 1009.1 hPa | 0 mm | 1.34 m/s, 211° | - | - |
| 1777982244 | 16.11° C | 71% | 1009.1 hPa | 0 mm | 1.34 m/s, 208° | - | - |
* Rain latest hour (hover to see other rain measurements)
** Current wind speed in m/s (hover to see current wind gust speed)